Regional Weather Roundup
Issued by NWS

Home | Current Version | Previous Version | Text Only | Print | Product List | Glossary Off
Versions: 1 2 3 4 5 6 7 8 9 10 11 12 13 14 15 16 17 18 19 20 21 22 23 24 25 26 27 28 29 30 31 32 33 34 35 36 37 38 39 40 41 42 43 44 45 46 47 48 49 50

000
ASUS43 KFSD 181810
RWRSD

WEATHER ROUNDUP FOR SOUTH DAKOTA
NATIONAL WEATHER SERVICE SIOUX FALLS SD
1200 PM CST SAT NOV 18 2017

NOTE: "FAIR" INDICATES FEW OR NO CLOUDS BELOW 12,000 FEET WITH NO
SIGNIFICANT WEATHER AND/OR OBSTRUCTIONS TO VISIBILITY.


SDZ001>005-009-010-012>017-181900-
NORTHWEST AND NORTH CENTRAL SOUTH DAKOTA

CITY           SKY/WX    TMP DP  RH WIND       PRES   REMARKS
BUFFALO          N/A     32  25  75 W7        30.05S WCI  26
FAITH            N/A     32  24  72 NW14      30.12F WCI  22
MOBRIDGE       SUNNY     29  16  58 NW17      30.10F WCI  17
$$

SDZ012>016-024>037-041>051-057-063-072>074-181900-
SOUTHWEST AND SOUTH CENTRAL SOUTH DAKOTA

CITY           SKY/WX    TMP DP  RH WIND       PRES   REMARKS
RAPID CTY ARPT SUNNY     44  18  35 NW22G35   30.15S
PIERRE         SUNNY     31  21  66 NW18      30.14S WCI  19
CUSTER         MOSUNNY   32  13  45 W15G22    30.11S WCI  22
ELLSWORTH AFB  MOSUNNY   44  17  34 NW24G33   30.13S
PHILIP         SUNNY     40  28  62 NW16      30.16S
PINE RIDGE     SUNNY     42  20  41 W15       30.18S
SPEARFISH      FAIR      37  16  41 W14G26    30.14R
WINNER         MOCLDY    39  27  62 NW26G33   30.14R
$$

SDZ004>011-016>023-039-040-181900-
NORTHEAST SOUTH DAKOTA

CITY           SKY/WX    TMP DP  RH WIND       PRES   REMARKS
ABERDEEN       SUNNY     31  14  49 NW18      30.09S WCI  19
WATERTOWN      SUNNY     28  17  63 NW21      30.00S WCI  15
BROOKINGS      MOSUNNY   30  19  63 NW23G29   29.99S WCI  17
SISSETON         N/A     28  14  55 NW26      30.02S WCI  13
$$

SDZ017-020-022-023-036>040-048>070-181900-
SOUTHEAST SOUTH DAKOTA

CITY           SKY/WX    TMP DP  RH WIND       PRES   REMARKS
SIOUX FALLS    MOSUNNY   38  24  57 NW24G32   30.01R
HURON          SUNNY     30  16  56 NW22G29   30.10R WCI  17
CHAMBERLAIN    SUNNY     35  24  63 NW21G29   30.13S WCI  23
MITCHELL       MOSUNNY   34  19  54 NW26      30.10R WCI  21
YANKTON        SUNNY     36  25  64 NW28G33   30.05R
$$

ABBREVIATIONS USED IN REMARKS
   TC - TEMPERATURE IN CELSIUS
  WCI - WIND CHILL INDEX
   HX - HEAT INDEX
  VSB - VISIBILITY





USA.gov is the U.S. government's official web portal to all federal, state and local government web resources and services.